SCP
0 0 0 0 0 0 0 0 0 0 0 0 0 0 0 0 0 0 0 0 0 0 0 0 0 0 0 0 0 0 0 0 0 0 0 0 0 0 0 0 0 0 0 0 0
0 0 0 0 0 0 0 0 0 0 0 0 0 0 0 0 0 0 0 0 0 0 0 0 0 0 0 0 0 0 0 0 0 0 0 0 0 0 0 0 0 0 0 0 0
0 0 0 0 0 0 0 0 0 0 0 0 0 0 0 0 0 0 0 0 0 0 0 0 0 0 0 0 0 0 0 0 0 0 0 0 0 0 0 0 0 0 0 0 0
0 0 0 0 0 0 0 0 0 0 0 0 0 0 0 0 0 0 0 0 0 0 0 0 0 0 0 0 0 0 0 0 0 0 0 0 0 0 0 0 0 0 0 0 0
0 0 0 0 0 0 0 0 0 0 0 0 0 0 0 0 0 0 0 0 0 0 0 0 0 0 0 0 0 0 0 0 0 0 0 0 0 0 0 0 0 0 0 0 0
0 0 0 0 0 0 0 0 0 0 0 0 0 0 0 0 0 0 0 0 0 0 0 0 0 0 0 0 0 0 0 0 0 0 0 0 0 0 0 0 0 0 0 0 0
0 0 0 0 0 0 0 0 0 0 0 0 0 0 0 0 0 0 0 0 0 0 0 0 0 0 0 0 0 0 0 0 0 0 0 0 0 0 0 0 0 0 0 0 0
0 0 0 0 0 0 0 0 0 0 0 0 0 0 0 0 0 0 0 0 0 0 0 0 0 0 0 0 0 0 0 0 0 0 0 0 0 0 0 0 0 0 0 0 0
0 0 0 0 0 0 0 0 0 0 0 0 0 0 0 0 0 0 0 0 0 0 0 0 0 0 0 0 0 0 0 0 0 0 0 0 0 0 0 0 0 0 0 0 0
0 0 0 0 0 0 0 0 0 0 0 0 0 0 0 0 0 0 0 0 0 0 0 0 0 0 0 0 0 0 0 0 0 0 0 0 0 0 0 0 0 0 0 0 0
0 0 0 0 0 0 0 0 0 0 0 0 0 0 0 0 0 0 0 0 0 0 0 0 0 0 0 0 0 0 0 0 0 0 0 0 0 0 0 0 0 0 0 0 0
0 0 0 0 0 0 0 0 0 0 0 0 0 0 0 0 0 0 0 0 0 0 0 0 0 0 0 0 0 0 0 0 0 0 0 0 0 0 0 0 0 0 0 0 0
0 0 0 0 0 1 0 0 0 0 0 0 0 0 0 0 0 0 0 0 0 0 0 0 0 0 0 0 0 0 0 0 0 0 0 0 -0 0 0 0 0 0 0 -0 -0
0 0 0 0 1 1 1 0 0 0 0 0 0 0 0 0 0 0 0 0 0 0 0 0 0 0 0 0 0 0 0 0 0 0 0 0 -0 0 0 0 0 0 0 0 0
0 0 0 0 0 1 1 0 0 0 0 0 0 0 0 0 0 0 0 0 0 0 0 0 0 0 0 0 0 0 0 0 0 0 0 0 0 -0 -0 0 0 0 0 0 0
0 0 0 0 1 0 0 0 0 0 0 0 0 0 0 0 0 0 0 0 0 0 0 0 0 0 0 0 0 0 0 0 0 0 0 0 0 -0 0 -0 0 0 0 0 0
-0 0 -0 0 1 1 0 0 0 0 0 0 0 0 0 0 0 0 0 0 0 0 0 0 0 0 0 0 0 0 0 0 0 0 0 0 0 0 0 0 0 0 0 0 0
0 0 0 0 0 1 0 0 0 0 0 0 0 0 0 0 0 0 0 0 0 0 0 0 0 0 0 0 0 0 0 0 0 0 0 0 0 0 0 0 0 0 0 0 0
0 0 0 -0 0 1 0 0 0 0 0 0 0 0 0 0 0 0 0 0 0 0 0 0 0 0 0 0 0 0 0 0 0 0 0 0 0 0 0 0 0 0 0 0 0
0 0 -0 0 -0 0 0 0 0 0 0 0 0 0 0 0 0 0 0 0 0 0 0 0 0 0 0 0 0 0 0 0 0 0 0 0 0 0 0 0 0 0 0 0 0
0 0 -0 0 -0 0 0 0 0 0 0 0 0 0 0 0 0 0 0 0 0 0 0 0 0 0 0 0 0 0 0 0 0 0 0 0 0 0 0 0 0 0 0 0 0
0 0 -0 0 0 0 0 0 0 0 0 0 0 0 0 0 0 0 0 0 0 0 0 0 0 0 0 0 0 0 0 0 0 0 0 0 0 0 0 0 0 0 0 -0 -0
0 0 0 0 0 0 0 0 0 0 0 0 0 0 0 0 0 0 0 0 0 0 0 0 0 0 0 0 0 0 0 0 0 0 0 0 0 0 0 0 0 0 0 0 0
0 0 0 0 0 0 0 0 0 0 0 0 0 0 0 0 0 0 0 0 0 0 0 0 0 0 0 0 0 0 0 0 0 0 0 0 0 0 0 0 0 0 0 0 0
0 0 0 0 0 0 0 0 0 0 0 0 0 0 0 0 0 0 0 0 0 0 0 0 0 0 0 0 0 0 0 0 0 0 0 0 0 0 0 0 0 0 0 0 0
0 0 0 0 0 0 0 0 0 0 0 0 0 0 0 0 0 0 0 0 0 0 0 0 0 0 0 0 0 0 0 0 0 0 0 0 0 0 0 0 0 0 0 0 0
0 0 0 0 0 0 0 0 0 0 0 0 0 0 0 0 0 0 0 0 0 0 0 0 0 0 0 0 0 0 0 0 0 0 0 0 0 0 0 0 0 0 0 0 0
Wind_Speed_500mb
52 48 44 43 41 36 34 36 37 34 33 36 36 35 32 31 29 29 29 24 23 19 18 24 30 27 22 17 17 18 11 18 20 15 5 8 10 1 5 5 5 8 5 5 2
61 55 50 46 43 39 36 36 36 34 32 33 34 36 32 32 31 42 38 28 24 21 23 21 25 27 13 15 12 17 17 25 11 14 9 15 9 4 4 4 9 10 16 13 12
65 63 58 52 47 43 38 36 37 35 32 29 31 29 27 26 17 31 38 40 30 23 22 24 25 27 14 13 12 10 24 21 13 12 10 13 12 9 8 14 12 14 19 17 17
66 67 65 59 54 48 44 39 36 37 33 30 28 25 22 22 12 8 21 42 43 31 29 20 27 17 16 16 11 10 14 12 11 8 7 8 6 11 22 28 10 11 16 19 22
72 70 69 67 61 53 48 43 37 40 35 34 30 27 28 20 22 5 5 23 46 36 31 29 22 19 20 18 12 15 11 12 14 1 10 5 19 25 25 34 25 24 30 32 33
78 73 73 72 69 61 53 48 41 41 38 38 31 33 34 28 19 25 12 9 33 43 31 28 20 15 11 11 19 14 22 16 4 2 9 12 31 15 35 47 41 37 43 41 47
87 82 74 73 71 68 59 53 45 43 41 38 36 38 30 43 12 28 29 12 17 37 31 31 17 26 16 11 12 10 9 10 12 15 19 16 32 33 60 54 55 52 49 52 53
92 90 84 78 73 71 65 58 49 45 44 40 39 38 28 39 33 21 29 22 21 31 31 32 25 21 17 19 12 13 9 12 13 33 17 20 39 25 34 49 57 62 64 57 58
96 93 91 81 79 76 69 61 53 48 47 43 43 31 17 24 35 33 34 30 23 33 20 30 25 17 15 18 10 14 17 27 9 21 10 29 25 12 28 41 45 49 50 48 51
97 92 91 93 83 80 75 65 55 49 49 43 43 24 25 29 41 51 38 33 23 30 21 26 20 19 18 23 20 19 22 15 22 11 15 28 37 37 43 47 55 58 58 59 58
99 97 93 94 87 86 81 74 48 31 69 37 27 31 13 34 37 57 48 39 30 37 24 40 26 35 42 39 18 4 18 20 7 3 13 29 40 40 53 56 59 64 66 65 65
93 96 97 93 90 92 98 93 97 33 43 61 23 53 14 35 20 49 56 35 35 33 38 15 40 37 30 31 33 23 19 18 15 14 21 37 52 44 56 62 60 63 65 70 68
88 89 96 96 97 98 115 119 96 52 23 43 37 51 30 39 18 48 61 45 41 41 45 27 5 47 34 31 34 30 30 25 24 22 31 36 42 36 41 57 59 64 70 68 67
76 116 93 95 96 111 114 118 98 63 12 22 30 29 42 25 15 37 64 45 19 44 39 32 14 32 32 36 31 29 25 26 20 12 12 2 18 30 27 33 35 50 53 61 64
75 78 106 106 105 113 104 122 102 59 14 38 35 33 51 46 32 33 67 36 28 27 25 20 27 23 41 37 33 18 13 22 21 14 10 23 13 8 17 23 37 46 53 56 61
108 99 73 97 107 113 88 126 96 15 23 25 40 48 50 54 23 40 56 30 19 16 22 12 2 17 16 17 31 14 10 6 7 11 18 26 23 40 27 33 29 37 38 46 54
88 89 109 80 112 115 106 109 27 26 33 24 36 50 65 33 38 35 51 41 27 20 28 10 10 5 12 25 6 24 24 8 10 13 16 4 23 48 21 21 30 50 65 56 47
101 84 101 89 104 115 126 35 32 30 31 21 34 52 50 48 38 43 52 45 47 34 27 25 19 25 22 25 19 36 29 12 15 12 9 10 25 17 12 17 33 36 53 53 46
77 85 102 89 85 121 95 59 37 39 28 38 46 51 23 36 27 32 49 53 51 53 27 31 30 16 18 12 24 15 32 28 4 2 8 15 28 40 41 43 51 58 48 52 35
80 81 94 115 111 105 39 46 33 36 40 48 30 37 33 49 35 40 48 48 45 57 44 17 11 12 18 10 11 19 24 12 15 13 15 21 32 32 15 25 36 35 39 30 34
80 40 79 80 87 78 49 32 17 51 61 48 33 25 36 52 50 54 58 22 59 56 47 24 8 11 21 25 32 9 24 14 13 18 13 16 23 22 29 26 20 28 27 43 44
65 17 42 88 32 36 31 20 36 60 68 10 20 27 43 59 49 49 50 45 72 61 55 24 7 14 28 1 10 40 33 37 15 16 19 21 35 5 17 21 39 52 58 52 48
31 27 43 75 25 21 18 14 22 58 51 30 25 13 32 46 27 44 45 43 28 49 48 31 13 12 8 8 8 23 31 40 38 8 26 24 29 11 19 20 31 40 56 69 81
31 14 20 51 50 12 25 15 26 62 36 28 30 23 31 39 9 44 32 21 33 57 45 53 16 35 31 14 26 29 41 43 43 22 47 35 55 52 45 46 48 53 58 64 74
20 8 5 13 11 19 16 13 45 22 10 44 20 35 43 23 15 22 30 16 29 63 40 28 31 26 35 9 27 27 46 49 48 63 35 55 48 52 59 43 46 63 74 79 79
16 7 8 8 22 18 18 26 52 24 26 26 31 51 45 35 32 45 35 35 29 37 44 29 7 22 11 21 16 14 24 38 52 52 48 55 54 62 73 62 54 64 67 71 73
18 23 17 13 17 17 16 21 43 39 10 38 50 44 44 47 47 61 40 60 29 42 47 28 15 16 19 18 11 17 53 44 37 47 48 43 59 46 35 37 45 59 64 57 56
Wind_Direction_500mb
246 247 248 251 250 250 243 233 233 240 234 231 231 233 232 238 243 247 235 231 246 244 232 227 217 211 199 184 177 163 218 234 235 202 209 154 195 187 265 252 209 205 183 191 295
242 243 244 246 248 245 247 236 228 233 232 230 230 234 233 235 240 245 239 231 233 240 234 222 210 195 174 170 174 202 222 231 227 212 221 175 201 188 255 208 220 222 232 237 230
242 241 240 240 244 241 240 243 227 225 230 226 224 227 223 227 251 254 242 230 224 226 217 221 212 189 178 170 176 190 230 230 221 212 202 189 202 205 230 254 248 252 222 242 227
239 241 240 238 239 240 236 238 233 220 224 211 217 210 206 198 221 255 229 218 216 216 208 195 189 193 189 183 180 205 225 227 233 190 177 218 195 229 228 255 245 228 222 254 244
240 237 238 237 235 236 232 228 231 217 220 207 211 198 186 204 228 224 215 207 212 209 209 207 189 193 197 190 154 219 196 215 240 157 221 229 248 266 255 255 250 235 245 257 252
240 238 234 233 233 232 229 225 224 218 215 207 205 198 198 218 235 229 211 193 209 205 201 208 219 204 166 182 205 190 219 226 276 216 228 240 251 245 255 259 259 252 247 256 260
239 237 234 231 229 227 227 221 219 214 212 204 199 203 213 222 226 212 209 217 194 200 198 203 217 193 167 161 167 158 239 248 227 241 245 237 255 239 253 258 263 262 258 260 256
242 237 235 230 227 226 221 218 214 209 203 202 200 201 229 233 219 204 200 203 196 192 203 209 202 198 196 141 139 194 218 226 206 221 227 197 260 250 251 262 259 265 266 261 259
242 237 232 231 224 222 218 214 208 204 199 199 202 196 229 225 216 201 199 197 194 187 194 199 190 206 187 194 189 197 221 214 219 200 216 210 269 245 248 260 263 265 271 271 269
240 236 231 228 222 218 214 207 202 197 196 200 207 197 222 214 208 194 193 187 169 173 185 191 206 214 215 199 213 221 219 220 222 155 216 249 255 264 262 264 269 274 273 271 270
238 236 231 224 222 215 208 193 176 190 194 183 194 198 136 200 195 190 185 172 174 177 188 189 201 209 208 211 212 185 231 245 253 266 304 264 270 271 272 266 265 268 272 271 269
232 234 229 222 218 214 210 186 190 195 182 202 196 194 199 175 170 190 184 172 188 187 184 188 218 215 216 219 223 223 241 240 270 267 283 280 276 274 272 264 262 263 267 270 268
236 228 228 222 216 212 203 198 192 166 165 201 183 195 171 182 191 193 182 187 195 192 192 197 182 208 209 203 216 232 237 241 250 283 272 279 284 270 266 263 257 256 259 263 266
246 229 225 218 214 211 201 198 187 173 166 174 187 200 189 172 223 188 186 182 187 203 195 223 190 189 204 210 201 227 223 236 238 256 264 161 285 284 280 275 261 257 260 264 266
250 222 224 216 209 210 199 193 182 168 221 164 170 182 178 180 144 185 184 193 193 185 186 192 193 187 208 210 200 214 215 211 230 237 286 250 279 250 230 262 272 270 264 264 263
246 231 216 210 210 209 197 187 170 211 196 162 151 169 166 193 180 150 179 186 180 183 229 216 36 202 191 188 193 175 172 180 235 264 260 246 241 272 253 252 261 274 270 270 270
233 238 229 211 205 204 189 164 195 200 152 155 163 170 176 171 171 170 179 185 176 169 201 179 197 180 175 187 150 186 180 182 204 205 244 222 214 248 294 277 267 282 282 282 284
223 225 232 221 203 200 167 180 208 157 160 163 162 168 181 160 182 182 176 191 203 200 170 188 204 195 181 200 185 192 187 187 204 204 246 203 234 256 246 269 269 265 277 284 287
221 227 228 232 220 191 180 193 209 134 141 158 149 165 161 170 162 178 188 196 198 197 191 198 217 189 189 167 164 179 218 214 342 137 266 230 259 275 262 266 270 270 272 288 298
210 214 224 230 228 196 199 190 178 141 148 150 153 174 164 173 167 184 190 201 201 202 212 181 181 194 172 163 203 198 161 164 211 219 232 241 255 252 264 281 290 298 302 297 320
207 211 221 233 225 225 198 199 121 154 147 170 148 156 182 175 185 186 189 175 196 191 196 172 158 149 151 211 183 178 196 204 194 217 232 262 248 242 254 263 288 308 311 306 314
193 202 229 220 221 195 196 158 148 161 165 119 144 153 179 182 185 187 198 201 197 182 190 178 136 168 194 155 231 221 215 199 197 203 237 263 265 219 270 273 290 298 296 310 309
188 189 224 207 229 192 128 98 148 158 161 148 165 170 173 174 182 197 201 199 190 181 184 179 186 139 162 240 216 219 214 223 226 272 233 222 253 238 258 261 255 288 306 310 308
154 174 201 209 219 198 147 141 138 169 166 162 133 130 147 167 160 190 189 174 196 187 187 167 185 205 207 197 165 206 213 214 214 228 239 229 250 269 269 271 290 303 302 297 298
177 188 166 179 170 151 109 135 145 155 167 171 161 158 151 157 148 182 169 137 181 188 184 185 214 211 232 230 188 208 209 210 213 224 220 248 251 266 270 285 307 301 294 296 297
147 173 82 104 149 144 153 167 160 151 152 179 165 171 172 161 181 182 167 173 170 182 189 195 229 192 219 209 213 209 212 219 224 234 237 253 269 254 277 298 293 293 300 299 302
133 145 134 141 151 155 168 151 165 148 223 186 174 164 178 190 187 170 166 164 165 172 185 180 157 163 224 185 182 271 229 215 221 224 226 235 241 271 285 294 297 301 303 305 312
Wind_Speed_850mb
52 48 44 43 41 36 34 36 37 34 33 36 36 35 32 31 29 29 29 24 23 19 18 24 30 27 22 17 17 18 11 18 20 15 5 8 10 1 5 5 5 8 5 5 2
61 55 50 46 43 39 36 36 36 34 32 33 34 36 32 32 31 42 38 28 24 21 23 21 25 27 13 15 12 17 17 25 11 14 9 15 9 4 4 4 9 10 16 13 12
65 63 58 52 47 43 38 36 37 35 32 29 31 29 27 26 17 31 38 40 30 23 22 24 25 27 14 13 12 10 24 21 13 12 10 13 12 9 8 14 12 14 19 17 17
66 67 65 59 54 48 44 39 36 37 33 30 28 25 22 22 12 8 21 42 43 31 29 20 27 17 16 16 11 10 14 12 11 8 7 8 6 11 22 28 10 11 16 19 22
72 70 69 67 61 53 48 43 37 40 35 34 30 27 28 20 22 5 5 23 46 36 31 29 22 19 20 18 12 15 11 12 14 1 10 5 19 25 25 34 25 24 30 32 33
78 73 73 72 69 61 53 48 41 41 38 38 31 33 34 28 19 25 12 9 33 43 31 28 20 15 11 11 19 14 22 16 4 2 9 12 31 15 35 47 41 37 43 41 47
87 82 74 73 71 68 59 53 45 43 41 38 36 38 30 43 12 28 29 12 17 37 31 31 17 26 16 11 12 10 9 10 12 15 19 16 32 33 60 54 55 52 49 52 53
92 90 84 78 73 71 65 58 49 45 44 40 39 38 28 39 33 21 29 22 21 31 31 32 25 21 17 19 12 13 9 12 13 33 17 20 39 25 34 49 57 62 64 57 58
96 93 91 81 79 76 69 61 53 48 47 43 43 31 17 24 35 33 34 30 23 33 20 30 25 17 15 18 10 14 17 27 9 21 10 29 25 12 28 41 45 49 50 48 51
97 92 91 93 83 80 75 65 55 49 49 43 43 24 25 29 41 51 38 33 23 30 21 26 20 19 18 23 20 19 22 15 22 11 15 28 37 37 43 47 55 58 58 59 58
99 97 93 94 87 86 81 74 48 31 69 37 27 31 13 34 37 57 48 39 30 37 24 40 26 35 42 39 18 4 18 20 7 3 13 29 40 40 53 56 59 64 66 65 65
93 96 97 93 90 92 98 93 97 33 43 61 23 53 14 35 20 49 56 35 35 33 38 15 40 37 30 31 33 23 19 18 15 14 21 37 52 44 56 62 60 63 65 70 68
88 89 96 96 97 98 115 119 96 52 23 43 37 51 30 39 18 48 61 45 41 41 45 27 5 47 34 31 34 30 30 25 24 22 31 36 42 36 41 57 59 64 70 68 67
76 116 93 95 96 111 114 118 98 63 12 22 30 29 42 25 15 37 64 45 19 44 39 32 14 32 32 36 31 29 25 26 20 12 12 2 18 30 27 33 35 50 53 61 64
75 78 106 106 105 113 104 122 102 59 14 38 35 33 51 46 32 33 67 36 28 27 25 20 27 23 41 37 33 18 13 22 21 14 10 23 13 8 17 23 37 46 53 56 61
108 99 73 97 107 113 88 126 96 15 23 25 40 48 50 54 23 40 56 30 19 16 22 12 2 17 16 17 31 14 10 6 7 11 18 26 23 40 27 33 29 37 38 46 54
88 89 109 80 112 115 106 109 27 26 33 24 36 50 65 33 38 35 51 41 27 20 28 10 10 5 12 25 6 24 24 8 10 13 16 4 23 48 21 21 30 50 65 56 47
101 84 101 89 104 115 126 35 32 30 31 21 34 52 50 48 38 43 52 45 47 34 27 25 19 25 22 25 19 36 29 12 15 12 9 10 25 17 12 17 33 36 53 53 46
77 85 102 89 85 121 95 59 37 39 28 38 46 51 23 36 27 32 49 53 51 53 27 31 30 16 18 12 24 15 32 28 4 2 8 15 28 40 41 43 51 58 48 52 35
80 81 94 115 111 105 39 46 33 36 40 48 30 37 33 49 35 40 48 48 45 57 44 17 11 12 18 10 11 19 24 12 15 13 15 21 32 32 15 25 36 35 39 30 34
80 40 79 80 87 78 49 32 17 51 61 48 33 25 36 52 50 54 58 22 59 56 47 24 8 11 21 25 32 9 24 14 13 18 13 16 23 22 29 26 20 28 27 43 44
65 17 42 88 32 36 31 20 36 60 68 10 20 27 43 59 49 49 50 45 72 61 55 24 7 14 28 1 10 40 33 37 15 16 19 21 35 5 17 21 39 52 58 52 48
31 27 43 75 25 21 18 14 22 58 51 30 25 13 32 46 27 44 45 43 28 49 48 31 13 12 8 8 8 23 31 40 38 8 26 24 29 11 19 20 31 40 56 69 81
31 14 20 51 50 12 25 15 26 62 36 28 30 23 31 39 9 44 32 21 33 57 45 53 16 35 31 14 26 29 41 43 43 22 47 35 55 52 45 46 48 53 58 64 74
20 8 5 13 11 19 16 13 45 22 10 44 20 35 43 23 15 22 30 16 29 63 40 28 31 26 35 9 27 27 46 49 48 63 35 55 48 52 59 43 46 63 74 79 79
16 7 8 8 22 18 18 26 52 24 26 26 31 51 45 35 32 45 35 35 29 37 44 29 7 22 11 21 16 14 24 38 52 52 48 55 54 62 73 62 54 64 67 71 73
18 23 17 13 17 17 16 21 43 39 10 38 50 44 44 47 47 61 40 60 29 42 47 28 15 16 19 18 11 17 53 44 37 47 48 43 59 46 35 37 45 59 64 57 56
Wind_Direction_850mb
246 247 248 251 250 250 243 233 233 240 234 231 231 233 232 238 243 247 235 231 246 244 232 227 217 211 199 184 177 163 218 234 235 202 209 154 195 187 265 252 209 205 183 191 295
242 243 244 246 248 245 247 236 228 233 232 230 230 234 233 235 240 245 239 231 233 240 234 222 210 195 174 170 174 202 222 231 227 212 221 175 201 188 255 208 220 222 232 237 230
242 241 240 240 244 241 240 243 227 225 230 226 224 227 223 227 251 254 242 230 224 226 217 221 212 189 178 170 176 190 230 230 221 212 202 189 202 205 230 254 248 252 222 242 227
239 241 240 238 239 240 236 238 233 220 224 211 217 210 206 198 221 255 229 218 216 216 208 195 189 193 189 183 180 205 225 227 233 190 177 218 195 229 228 255 245 228 222 254 244
240 237 238 237 235 236 232 228 231 217 220 207 211 198 186 204 228 224 215 207 212 209 209 207 189 193 197 190 154 219 196 215 240 157 221 229 248 266 255 255 250 235 245 257 252
240 238 234 233 233 232 229 225 224 218 215 207 205 198 198 218 235 229 211 193 209 205 201 208 219 204 166 182 205 190 219 226 276 216 228 240 251 245 255 259 259 252 247 256 260
239 237 234 231 229 227 227 221 219 214 212 204 199 203 213 222 226 212 209 217 194 200 198 203 217 193 167 161 167 158 239 248 227 241 245 237 255 239 253 258 263 262 258 260 256
242 237 235 230 227 226 221 218 214 209 203 202 200 201 229 233 219 204 200 203 196 192 203 209 202 198 196 141 139 194 218 226 206 221 227 197 260 250 251 262 259 265 266 261 259
242 237 232 231 224 222 218 214 208 204 199 199 202 196 229 225 216 201 199 197 194 187 194 199 190 206 187 194 189 197 221 214 219 200 216 210 269 245 248 260 263 265 271 271 269
240 236 231 228 222 218 214 207 202 197 196 200 207 197 222 214 208 194 193 187 169 173 185 191 206 214 215 199 213 221 219 220 222 155 216 249 255 264 262 264 269 274 273 271 270
238 236 231 224 222 215 208 193 176 190 194 183 194 198 136 200 195 190 185 172 174 177 188 189 201 209 208 211 212 185 231 245 253 266 304 264 270 271 272 266 265 268 272 271 269
232 234 229 222 218 214 210 186 190 195 182 202 196 194 199 175 170 190 184 172 188 187 184 188 218 215 216 219 223 223 241 240 270 267 283 280 276 274 272 264 262 263 267 270 268
236 228 228 222 216 212 203 198 192 166 165 201 183 195 171 182 191 193 182 187 195 192 192 197 182 208 209 203 216 232 237 241 250 283 272 279 284 270 266 263 257 256 259 263 266
246 229 225 218 214 211 201 198 187 173 166 174 187 200 189 172 223 188 186 182 187 203 195 223 190 189 204 210 201 227 223 236 238 256 264 161 285 284 280 275 261 257 260 264 266
250 222 224 216 209 210 199 193 182 168 221 164 170 182 178 180 144 185 184 193 193 185 186 192 193 187 208 210 200 214 215 211 230 237 286 250 279 250 230 262 272 270 264 264 263
246 231 216 210 210 209 197 187 170 211 196 162 151 169 166 193 180 150 179 186 180 183 229 216 36 202 191 188 193 175 172 180 235 264 260 246 241 272 253 252 261 274 270 270 270
233 238 229 211 205 204 189 164 195 200 152 155 163 170 176 171 171 170 179 185 176 169 201 179 197 180 175 187 150 186 180 182 204 205 244 222 214 248 294 277 267 282 282 282 284
223 225 232 221 203 200 167 180 208 157 160 163 162 168 181 160 182 182 176 191 203 200 170 188 204 195 181 200 185 192 187 187 204 204 246 203 234 256 246 269 269 265 277 284 287
221 227 228 232 220 191 180 193 209 134 141 158 149 165 161 170 162 178 188 196 198 197 191 198 217 189 189 167 164 179 218 214 342 137 266 230 259 275 262 266 270 270 272 288 298
210 214 224 230 228 196 199 190 178 141 148 150 153 174 164 173 167 184 190 201 201 202 212 181 181 194 172 163 203 198 161 164 211 219 232 241 255 252 264 281 290 298 302 297 320
207 211 221 233 225 225 198 199 121 154 147 170 148 156 182 175 185 186 189 175 196 191 196 172 158 149 151 211 183 178 196 204 194 217 232 262 248 242 254 263 288 308 311 306 314
193 202 229 220 221 195 196 158 148 161 165 119 144 153 179 182 185 187 198 201 197 182 190 178 136 168 194 155 231 221 215 199 197 203 237 263 265 219 270 273 290 298 296 310 309
188 189 224 207 229 192 128 98 148 158 161 148 165 170 173 174 182 197 201 199 190 181 184 179 186 139 162 240 216 219 214 223 226 272 233 222 253 238 258 261 255 288 306 310 308
154 174 201 209 219 198 147 141 138 169 166 162 133 130 147 167 160 190 189 174 196 187 187 167 185 205 207 197 165 206 213 214 214 228 239 229 250 269 269 271 290 303 302 297 298
177 188 166 179 170 151 109 135 145 155 167 171 161 158 151 157 148 182 169 137 181 188 184 185 214 211 232 230 188 208 209 210 213 224 220 248 251 266 270 285 307 301 294 296 297
147 173 82 104 149 144 153 167 160 151 152 179 165 171 172 161 181 182 167 173 170 182 189 195 229 192 219 209 213 209 212 219 224 234 237 253 269 254 277 298 293 293 300 299 302
133 145 134 141 151 155 168 151 165 148 223 186 174 164 178 190 187 170 166 164 165 172 185 180 157 163 224 185 182 271 229 215 221 224 226 235 241 271 285 294 297 301 303 305 312